Jasper, AL

9:08 PM CST on December 12, 2019 (GMT -0600)
Walker County-Bevill

Weather History for KJFX - June, 2019

Change the Weather History Date:

Monday, June 3, 2019

  Actual Average Record
Temperature  
Mean Temperature 78 °F -  
Max Temperature 93 °F 84 °F 104 °F (2011)
Min Temperature 62 °F 59 °F 44 °F (1969)
Cooling Degree Days 12    
Growing Degree Days 28 (Base 50)    
Moisture  
Dew Point 64 °F    
Average Humidity 68    
Maximum Humidity 100    
Minimum Humidity 31    
Precipitation  
Precipitation 0.00 in - - ()
Sea Level Pressure  
Sea Level Pressure 30.01 in    
Wind  
Wind Speed - (North)    
Max Wind Speed -    
Max Gust Speed -    
Averages and records for this station are not official NWS values.
T = Trace of Precipitation, MM = Missing Value Source: NWS Daily Summary

Daily Weather History Graph

Daily Weather History Graph

Search for Another Location

Airport or City:

Astronomy

Jun. 03, 2019 Rise Set
Actual Time 5:38 AM CDT 7:56 PM CDT
Civil Twilight 5:10 AM CDT 8:24 PM CDT
Nautical Twilight 4:34 AM CDT 9:00 PM CDT
Astronomical Twilight 3:56 AM CDT 9:38 PM CDT
Moon 5:56 AM CDT (6/3) 8:21 PM CDT (6/3)
Length of Visible Light 15h 14m
Length of Day
14h 17m
New Moon, 0% of the Moon is Illuminated
Jun 3
New Moon
Jun 10
First Quarter
Jun 17
Full
Jun 25
Last Quarter
Jul 2
New

Hourly Weather History & Observations

Time (CDT) Temp. Heat Index Dew Point Humidity Pressure Visibility Wind Dir Wind Speed Gust Speed Precip Events Conditions
12:15 AM 66.2 °F - 66.2 °F 100% 29.93 in - North - - N/A   Unknown
12:35 AM 64.4 °F - 64.4 °F 100% 29.93 in - North - - N/A   Unknown
12:55 AM 64.4 °F - 64.4 °F 100% 29.93 in - North - - N/A   Unknown
1:15 AM 64.4 °F - 64.4 °F 100% 29.94 in - North - - N/A   Unknown
1:35 AM 64.4 °F - 64.4 °F 100% 29.94 in - North - - N/A   Unknown
1:55 AM 64.4 °F - 64.4 °F 100% 29.94 in - North - - N/A   Unknown
2:15 AM 64.4 °F - 64.4 °F 100% 29.94 in - North - - N/A   Unknown
2:35 AM - - - N/A% 29.93 in - North - - N/A   Unknown
2:55 AM 62.6 °F - 62.6 °F 100% 29.94 in - North - - N/A   Unknown
3:15 AM 62.6 °F - 62.6 °F 100% 29.95 in - North - - N/A   Unknown
3:35 AM 62.6 °F - 62.6 °F 100% 29.95 in - North - - N/A   Unknown
3:55 AM 62.6 °F - 62.6 °F 100% 29.96 in - North - - N/A   Unknown
4:15 AM 62.6 °F - 62.6 °F 100% 29.96 in - North - - N/A   Unknown
4:35 AM 62.6 °F - 62.6 °F 100% 29.96 in - North - - N/A   Unknown
4:55 AM 62.6 °F - 62.6 °F 100% 29.97 in - North - - N/A   Unknown
5:15 AM - - - N/A% 29.98 in - North - - N/A   Unknown
5:35 AM - - - N/A% 29.99 in - North - - N/A   Unknown
5:55 AM 62.6 °F - 62.6 °F 100% 30.00 in - North - - N/A   Unknown
6:15 AM 62.6 °F - 62.6 °F 100% 30.01 in - North - - N/A   Unknown
6:35 AM 64.4 °F - 64.4 °F 100% 30.01 in - North - - N/A   Unknown
6:55 AM 66.2 °F - 66.2 °F 100% 30.01 in - North - - N/A   Unknown
7:15 AM 69.8 °F - 69.8 °F 100% 30.02 in - North - - N/A   Unknown
7:35 AM 73.4 °F - 68.0 °F 83% 30.02 in - North - - N/A   Unknown
7:55 AM 75.2 °F - 68.0 °F 78% 30.03 in - North - - N/A   Unknown
8:15 AM 78.8 °F - 66.2 °F 65% 30.03 in - North - - N/A   Unknown
8:35 AM 80.6 °F 82.7 °F 66.2 °F 61% 30.03 in - North - - N/A   Unknown
8:55 AM 82.4 °F 85.4 °F 68.0 °F 62% 30.04 in - North - - N/A   Unknown
9:15 AM 86.0 °F 89.4 °F 68.0 °F 55% 30.04 in - North - - N/A   Unknown
9:35 AM 86.0 °F 88.2 °F 66.2 °F 51% 30.04 in - North - - N/A   Unknown
9:55 AM 87.8 °F 90.4 °F 66.2 °F 49% 30.04 in - North - - N/A   Unknown
10:15 AM 89.6 °F 91.1 °F 64.4 °F 43% 30.05 in - North - - N/A   Unknown
10:35 AM 89.6 °F 91.1 °F 64.4 °F 43% 30.05 in - North - - N/A   Unknown
10:55 AM 89.6 °F 91.1 °F 64.4 °F 43% 30.05 in - North - - N/A   Unknown
11:15 AM 89.6 °F 91.1 °F 64.4 °F 43% 30.05 in - North - - N/A   Unknown
11:35 AM 89.6 °F 91.1 °F 64.4 °F 43% 30.05 in - North - - N/A   Unknown
11:55 AM 87.8 °F 89.4 °F 64.4 °F 46% 30.04 in - North - - N/A   Unknown
12:15 PM 89.6 °F 91.1 °F 64.4 °F 43% 30.04 in - North - - N/A   Unknown
12:35 PM 89.6 °F 91.1 °F 64.4 °F 43% 30.04 in - North - - N/A   Unknown
12:55 PM 93.2 °F 93.3 °F 60.8 °F 34% 30.03 in - North - - N/A   Unknown
1:15 PM 91.4 °F 92.1 °F 62.6 °F 38% 30.03 in - North - - N/A   Unknown
1:35 PM 93.2 °F 92.6 °F 59.0 °F 32% 30.03 in - North - - N/A   Unknown
1:55 PM 91.4 °F 91.4 °F 60.8 °F 36% 30.03 in - North - - N/A   Unknown
2:15 PM 93.2 °F 92.6 °F 59.0 °F 32% 30.02 in - North - - N/A   Unknown
2:35 PM 93.2 °F 94.1 °F 62.6 °F 36% 30.01 in - North - - N/A   Unknown
2:55 PM 93.2 °F 93.3 °F 60.8 °F 34% 30.02 in - North - - N/A   Unknown
3:15 PM 93.2 °F 92.6 °F 59.0 °F 32% 30.01 in - North - - N/A   Unknown
3:35 PM 93.2 °F 93.3 °F 60.8 °F 34% 30.01 in - North - - N/A   Unknown
3:55 PM 93.2 °F 92.6 °F 59.0 °F 32% 30.00 in - North - - N/A   Unknown
4:15 PM 91.4 °F 90.7 °F 59.0 °F 34% 29.99 in - North - - N/A   Unknown
4:35 PM 91.4 °F 90.7 °F 59.0 °F 34% 29.99 in - North - - N/A   Unknown
4:55 PM 91.4 °F 89.9 °F 57.2 °F 31% 29.99 in - North - - N/A   Unknown
5:15 PM 91.4 °F 90.7 °F 59.0 °F 34% 29.99 in - North - - N/A   Unknown
5:35 PM 89.6 °F 88.1 °F 57.2 °F 33% 29.99 in - North - - N/A   Unknown
5:55 PM 87.8 °F 87.1 °F 59.0 °F 38% 29.99 in - North - - N/A   Unknown
6:15 PM 86.0 °F 87.3 °F 64.4 °F 48% 29.99 in - North - - N/A   Unknown
6:35 PM 87.8 °F 87.6 °F 60.8 °F 40% 30.00 in - North - - N/A   Unknown
6:55 PM 86.0 °F 88.2 °F 66.2 °F 51% 30.00 in - North - - N/A   Unknown
7:15 PM 80.6 °F 83.2 °F 68.0 °F 65% 30.01 in - North - - N/A   Unknown
7:35 PM 77.0 °F - 68.0 °F 74% 30.02 in - North - - N/A   Unknown
7:55 PM 73.4 °F - 68.0 °F 83% 30.02 in - North - - N/A   Unknown
8:15 PM 71.6 °F - 68.0 °F 88% 30.02 in - North - - N/A   Unknown
8:35 PM 69.8 °F - 66.2 °F 88% 30.02 in - North - - N/A   Unknown
8:55 PM 69.8 °F - 66.2 °F 88% 30.03 in - North - - N/A   Unknown
9:15 PM 69.8 °F - 66.2 °F 88% 30.03 in - North - - N/A   Unknown
9:35 PM 69.8 °F - 66.2 °F 88% 30.04 in - North - - N/A   Unknown
9:55 PM 69.8 °F - 62.6 °F 78% 30.04 in - North - - N/A   Unknown
10:15 PM 69.8 °F - 62.6 °F 78% 30.05 in - North - - N/A   Unknown
10:35 PM 69.8 °F - 66.2 °F 88% 30.05 in - North - - N/A   Unknown
10:55 PM 68.0 °F - 66.2 °F 94% 30.05 in - North - - N/A   Unknown
11:15 PM 68.0 °F - 66.2 °F 94% 30.05 in - North - - N/A   Unknown
11:35 PM 66.2 °F - 64.4 °F 94% 30.05 in - North - - N/A   Unknown
11:55 PM 66.2 °F - 66.2 °F 100% 30.05 in - North - - N/A   Unknown